Forside
METAR-TAF:

METAR-TAF

Lufthavne :

Merrill Municipal Airport

Merrill, Wisconsin, USA

Breddekreds: 45-11N, længdekreds: 089-42W, højde: 401 m

Aktuelle vejr

Denne rapport blev lavet for 18 minutter siden, kl. 11:55 UTC
Vind 3 kt fra nordnordøst
Temperatur -2°C
Fugtighed 86%
Tryk 1021 hPa
Sigt: 16.1 km
skyfri

METAR: KRRL 311155Z AUTO 03003KT 10SM CLR M02/M04 A3015 RMK AO2 T10221043 10002 21023 TSNO

Tid: 07:13 (12:13 UTC)


TAF: fraværende

Vejrobservationer og prognoser fra mere end 4000 lufthavne (METAR og TAF).

De gule og røde prikker repræsenterer de meteorologiske stationer.

Flyt musen over at se navnet på stationen.

Så klik over at se vejr observationer og prognoser.

At skifte det kort: Klik på de grønne knapper med et sort kors for at zoome ind; på den grønne knap med en bindestreg for at zoome ud; eller på de grønne pile for tilstødende kort.


METAR-TAF: